Crosby, ND

8:14 AM CDT on October 23, 2019 (GMT -0500)
Crosby

Weather History for KD50 - August, 2019

Change the Weather History Date:

Sunday, August 18, 2019

  Actual Average (KISN) Record (KISN)
Temperature  
Mean Temperature 62 °F -  
Max Temperature 77 °F 83 °F 100 °F (1981)
Min Temperature 46 °F 53 °F 38 °F (1969)
Degree Days  
Heating Degree Days 4    
Growing Degree Days 12 (Base 50)    
Moisture  
Dew Point 46 °F    
Average Humidity 60    
Maximum Humidity 100    
Minimum Humidity 26    
Precipitation  
Precipitation 0.00 in - - ()
Sea Level Pressure  
Sea Level Pressure 29.78 in    
Wind  
Wind Speed 12 mph (SW)    
Max Wind Speed 18 mph    
Max Gust Speed 24 mph    
Visibility 10 miles    
Events      
Averages and records for this station are not official NWS values.
T = Trace of Precipitation, MM = Missing Value Source: NWS Daily Summary

Daily Weather History Graph

Daily Weather History Graph

Search for Another Location

Airport or City:

Astronomy

Aug. 18, 2019 Rise Set
Actual Time 6:49 AM CDT 9:03 PM CDT
Civil Twilight 6:15 AM CDT 9:37 PM CDT
Nautical Twilight 5:31 AM CDT 10:20 PM CDT
Astronomical Twilight 4:42 AM CDT 11:09 PM CDT
Moon 10:45 PM CDT (8/18) 9:48 AM CDT (8/18)
Length of Visible Light 15h 22m
Length of Day
14h 13m
Waning Gibbous, 91% of the Moon is Illuminated
Aug 18
Waning Gibbous
Aug 23
Last Quarter
Aug 30
New
Sep 5
First Quarter
Sep 13
Full

Hourly Weather History & Observations

Time (CDT) Temp. Windchill Dew Point Humidity Pressure Visibility Wind Dir Wind Speed Gust Speed Precip Events Conditions
12:15 AM 50.0 °F - 44.6 °F 82% 29.81 in 10.0 mi WSW 11.5 mph - N/A   Clear
12:35 AM 50.0 °F - 44.6 °F 82% 29.81 in 10.0 mi WSW 10.4 mph - N/A   Clear
12:55 AM 51.8 °F - 44.6 °F 76% 29.81 in 10.0 mi WSW 12.7 mph - N/A   Clear
1:15 AM 51.8 °F - 44.6 °F 76% 29.82 in 10.0 mi WSW 13.8 mph - N/A   Clear
1:35 AM 51.8 °F - 44.6 °F 76% 29.82 in 10.0 mi WSW 12.7 mph - N/A   Clear
1:55 AM 51.8 °F - 42.8 °F 71% 29.81 in 10.0 mi WSW 11.5 mph - N/A   Clear
2:15 AM 50.0 °F - 44.6 °F 82% 29.80 in 10.0 mi WSW 11.5 mph - N/A   Partly Cloudy
2:35 AM 50.0 °F - 44.6 °F 82% 29.80 in 10.0 mi WSW 11.5 mph - N/A   Partly Cloudy
2:55 AM 50.0 °F - 44.6 °F 82% 29.79 in 10.0 mi WSW 10.4 mph - N/A   Clear
3:15 AM 48.2 °F - 42.8 °F 82% 29.80 in 10.0 mi SW 10.4 mph 16.1 mph N/A   Clear
3:35 AM 48.2 °F - 44.6 °F 87% 29.80 in 10.0 mi SW 8.1 mph 15.0 mph N/A   Clear
3:55 AM 48.2 °F - 44.6 °F 87% 29.80 in 10.0 mi SW 9.2 mph - N/A   Partly Cloudy
4:15 AM 48.2 °F - 44.6 °F 87% 29.80 in 10.0 mi SW 9.2 mph - N/A   Clear
4:35 AM 46.4 °F 41.9 °F 44.6 °F 93% 29.80 in 10.0 mi SW 9.2 mph - N/A   Clear
4:55 AM 46.4 °F 41.9 °F 44.6 °F 93% 29.81 in 10.0 mi SW 9.2 mph - N/A   Clear
5:15 AM 46.4 °F 41.1 °F 44.6 °F 93% 29.80 in 10.0 mi SW 11.5 mph - N/A   Clear
5:35 AM 48.2 °F - 44.6 °F 87% 29.80 in 10.0 mi SW 12.7 mph - N/A   Clear
5:55 AM 48.2 °F - 46.4 °F 93% 29.80 in 10.0 mi SW 12.7 mph - N/A   Clear
6:15 AM 46.4 °F 41.1 °F 46.4 °F 100% 29.80 in 10.0 mi SSW 11.5 mph - N/A   Partly Cloudy
6:35 AM 46.4 °F 41.5 °F 46.4 °F 100% 29.80 in 10.0 mi SSW 10.4 mph - N/A   Clear
6:55 AM 46.4 °F 41.9 °F 46.4 °F 100% 29.80 in 10.0 mi SW 9.2 mph - N/A   Clear
7:15 AM 46.4 °F 41.9 °F 46.4 °F 100% 29.80 in 10.0 mi SSW 9.2 mph - N/A   Clear
7:35 AM 48.2 °F - 48.2 °F 100% 29.81 in 10.0 mi SSW 9.2 mph - N/A   Clear
7:55 AM 50.0 °F - 48.2 °F 94% 29.80 in 10.0 mi SW 10.4 mph - N/A   Clear
8:15 AM 55.4 °F - 48.2 °F 77% 29.81 in 10.0 mi SW 12.7 mph - N/A   Clear
8:35 AM 55.4 °F - 48.2 °F 77% 29.81 in 10.0 mi SW 12.7 mph - N/A   Clear
8:55 AM 53.6 °F - 48.2 °F 82% 29.81 in 10.0 mi SW 9.2 mph - N/A   Clear
9:15 AM 57.2 °F - 50.0 °F 77% 29.81 in 10.0 mi SW 9.2 mph 16.1 mph N/A   Clear
9:35 AM 59.0 °F - 50.0 °F 72% 29.82 in 10.0 mi WSW 12.7 mph 18.4 mph N/A   Clear
9:55 AM 60.8 °F - 50.0 °F 68% 29.82 in 10.0 mi SW 12.7 mph - N/A   Clear
10:15 AM 60.8 °F - 50.0 °F 68% 29.82 in 10.0 mi SW 11.5 mph 19.6 mph N/A   Clear
10:35 AM 60.8 °F - 50.0 °F 68% 29.82 in 10.0 mi SW 12.7 mph 19.6 mph N/A   Clear
10:55 AM 64.4 °F - 48.2 °F 56% 29.82 in 10.0 mi WSW 15.0 mph - N/A   Clear
11:15 AM 64.4 °F - 46.4 °F 52% 29.81 in 10.0 mi WSW 16.1 mph - N/A   Clear
11:35 AM 66.2 °F - 42.8 °F 43% 29.81 in 10.0 mi WSW 17.3 mph - N/A   Clear
11:55 AM 68.0 °F - 41.0 °F 37% 29.80 in 10.0 mi SW 17.3 mph - N/A   Clear
12:15 PM 69.8 °F - 41.0 °F 35% 29.80 in 10.0 mi SW 18.4 mph - N/A   Clear
12:35 PM 69.8 °F - 41.0 °F 35% 29.80 in 10.0 mi SSW 17.3 mph - N/A   Clear
12:55 PM 69.8 °F - 41.0 °F 35% 29.79 in 10.0 mi SW 13.8 mph 23.0 mph N/A   Clear
1:15 PM 71.6 °F - 39.2 °F 31% 29.79 in 10.0 mi WSW 15.0 mph 24.2 mph N/A   Clear
1:35 PM 71.6 °F - 41.0 °F 33% 29.79 in 10.0 mi WSW 15.0 mph 21.9 mph N/A   Clear
1:55 PM 71.6 °F - 41.0 °F 33% 29.78 in 10.0 mi SW 16.1 mph 24.2 mph N/A   Clear
2:15 PM 73.4 °F - 42.8 °F 33% 29.78 in 10.0 mi SSW 17.3 mph 24.2 mph N/A   Clear
2:35 PM 73.4 °F - 42.8 °F 33% 29.78 in 10.0 mi SW 16.1 mph 23.0 mph N/A   Clear
2:55 PM 75.2 °F - 42.8 °F 31% 29.78 in 10.0 mi SW 15.0 mph - N/A   Clear
3:15 PM 75.2 °F - 42.8 °F 31% 29.77 in 10.0 mi SSW 12.7 mph 19.6 mph N/A   Clear
3:35 PM 77.0 °F - 39.2 °F 26% 29.76 in 10.0 mi WSW 13.8 mph 20.7 mph N/A   Clear
3:55 PM 77.0 °F - 42.8 °F 29% 29.76 in 10.0 mi SW 15.0 mph 20.7 mph N/A   Clear
4:15 PM 77.0 °F - 42.8 °F 29% 29.76 in 10.0 mi WSW 15.0 mph 23.0 mph N/A   Scattered Clouds
4:35 PM 75.2 °F - 42.8 °F 31% 29.75 in 10.0 mi SW 13.8 mph 24.2 mph N/A   Partly Cloudy
4:55 PM 77.0 °F - 42.8 °F 29% 29.75 in 10.0 mi SW 15.0 mph 21.9 mph N/A   Partly Cloudy
5:15 PM 77.0 °F - 42.8 °F 29% 29.74 in 10.0 mi WSW 13.8 mph - N/A   Scattered Clouds
5:35 PM 77.0 °F - 42.8 °F 29% 29.74 in 10.0 mi SW 10.4 mph 18.4 mph N/A   Mostly Cloudy
5:55 PM 77.0 °F - 42.8 °F 29% 29.74 in 10.0 mi SW 15.0 mph 23.0 mph N/A   Scattered Clouds
6:15 PM 75.2 °F - 42.8 °F 31% 29.73 in 10.0 mi SW 9.2 mph 16.1 mph N/A   Scattered Clouds
6:35 PM 75.2 °F - 42.8 °F 31% 29.73 in 10.0 mi SW 12.7 mph 19.6 mph N/A   Overcast
6:55 PM 77.0 °F - 44.6 °F 32% 29.72 in 10.0 mi SW 11.5 mph - N/A   Overcast
7:15 PM 75.2 °F - 44.6 °F 34% 29.72 in 10.0 mi SW 6.9 mph - N/A   Overcast
7:35 PM 73.4 °F - 46.4 °F 38% 29.72 in 10.0 mi SW 5.8 mph - N/A   Overcast
7:55 PM 73.4 °F - 48.2 °F 41% 29.72 in 10.0 mi SW 6.9 mph - N/A   Mostly Cloudy
8:15 PM 71.6 °F - 48.2 °F 43% 29.72 in 10.0 mi WSW 10.4 mph - N/A   Overcast
8:35 PM 71.6 °F - 50.0 °F 46% 29.72 in 10.0 mi SSW 6.9 mph - N/A   Overcast
8:55 PM 69.8 °F - 50.0 °F 49% 29.72 in 10.0 mi SW 6.9 mph - N/A   Overcast
9:15 PM 68.0 °F - 51.8 °F 56% 29.73 in 10.0 mi North - - N/A   Overcast
9:35 PM 64.4 °F - 51.8 °F 64% 29.73 in 10.0 mi SW 8.1 mph - N/A   Scattered Clouds
9:55 PM 62.6 °F - 51.8 °F 68% 29.74 in 10.0 mi SW 8.1 mph - N/A   Partly Cloudy
10:15 PM 64.4 °F - 50.0 °F 59% 29.74 in 10.0 mi SW 9.2 mph - N/A   Clear
10:35 PM 64.4 °F - 50.0 °F 59% 29.74 in 10.0 mi SW 10.4 mph - N/A   Clear
10:55 PM 62.6 °F - 50.0 °F 63% 29.75 in 10.0 mi WSW 9.2 mph - N/A   Scattered Clouds
11:15 PM 62.6 °F - 50.0 °F 63% 29.75 in 10.0 mi SW 9.2 mph - N/A   Mostly Cloudy
11:35 PM 62.6 °F - 50.0 °F 63% 29.76 in 10.0 mi WSW 10.4 mph - N/A   Partly Cloudy
11:55 PM 62.6 °F - 50.0 °F 63% 29.76 in 10.0 mi WSW 8.1 mph - N/A   Clear